Regional Weather Roundup
Issued by NWS

Home | Current Version | Previous Version | Text Only | Print | Product List | Glossary On
Versions: 1 2 3 4 5 6 7 8 9 10 11 12 13 14 15 16 17 18 19 20 21 22 23 24 25 26 27 28 29 30 31 32 33 34 35 36 37 38 39 40 41 42 43 44 45 46 47 48 49 50
000
ASUS43 KDTX 092101
RWRMI
MICHIGAN HOURLY REGIONAL WEATHER ROUNDUP
NATIONAL WEATHER SERVICE DETROIT/PONTIAC MI
500 PM EDT WED JUL 09 2014

NOTE: "FAIR" INDICATES FEW OR NO CLOUDS BELOW 12,000 FEET WITH NO
SIGNIFICANT WEATHER AND/OR OBSTRUCTION TO VISIBILITY.

MIZ047>049-052>055-059>063-066>070-074>076-081>083-092200-
SOUTHEAST LOWER MICHIGAN

CITY           SKY/WX    TMP DP  RH WIND       PRES   REMARKS
ADRIAN         MOSUNNY   77  55  46 NW13G18   29.93S
ALMA           PTSUNNY   69  50  49 SW5       29.95S
ANN ARBOR      MOSUNNY   76  57  51 NW8       29.93R
BAD AXE        PTSUNNY   70  51  50 W3        29.94S
CARO           MOSUNNY   73  54  51 NW7       29.94S
DETROIT CITY   MOSUNNY   77  53  43 VRB7      29.92S
DETROIT        PTSUNNY   77  57  50 W9        29.92S
FLINT          MOSUNNY   71  52  50 NW13      29.95R
GROSSE ILE     MOSUNNY   77  55  47 NW10      29.91S
HILLSDALE      MOSUNNY   76  58  54 NW13      29.95S
HOWELL         PTSUNNY   71  55  57 NW9       29.95R

CITY           SKY/WX    TMP DP  RH WIND       PRES   REMARKS
JACKSON        MOSUNNY   74  57  55 N7        29.95R
LAMBERTVILLE   MOSUNNY   79  52  38 NW9       29.93R
LANSING        MOSUNNY   72  54  53 NW6       29.95S
LAPEER         MOCLDY    70  53  56 NW5       29.95S
MASON          PTSUNNY   70  54  55 NW10      29.95S
MONROE         PTSUNNY   77  55  47 NW7       29.91R
MT. CLEMENS    MOSUNNY   72  55  54 NW9       29.91S
PONTIAC        PTSUNNY   72  55  55 NW8       29.93S
PORT HOPE        N/A     64  55  72 SE12      29.93S
PORT HURON     PTSUNNY   70  55  60 N3        29.94S
TRI CITIES     MOSUNNY   72  51  47 VRB3      29.94F
TROY           PTSUNNY   73  54  50 W5        29.94R
SAGINAW HB     MOSUNNY   73  48  40 SW10      29.94S
$$
MIZ043>046-050>051-056>058-064>065-071>073-077>080-092200-
SOUTHWEST LOWER MICHIGAN

CITY           SKY/WX    TMP DP  RH WIND       PRES   REMARKS
BATTLE CREEK   PTSUNNY   71  55  56 W10       29.97R
BENTON HARBOR  SUNNY     71  57  61 VRB5      29.97S
COLDWATER      SUNNY     75  58  54 W10       29.95S
FREMONT        FAIR      72  47  41 NW10      29.95S
HOLLAND        MOSUNNY   73  56  54 NW10      29.98S
GRAND RAPIDS   PTSUNNY   72  54  53 W9        29.95S
IONIA          MOCLDY    71  54  55 NW8       29.95R
KALAMAZOO      PTSUNNY   75  57  53 NW12      29.97R
LUDINGTON      MOSUNNY   69  55  59 NW5       29.97R
MARSHALL       MOSUNNY   72  57  58 NW6G17    29.95S
MOUNT PLEASANT CLOUDY    69  52  54 NW5       29.95R
MUSKEGON       PTSUNNY   70  52  52 W9        29.97S
SOUTH HAVEN    SUNNY     71  57  62 NW5       29.98R
$$
MIZ016>042-092200-
NORTHERN LOWER MICHIGAN

CITY           SKY/WX    TMP DP  RH WIND       PRES   REMARKS
ALPENA         CLOUDY    65  49  56 CALM      29.93R
BEAVER ISLAND  SUNNY     63  55  73 SW10      29.96R
BELLAIRE       MOSUNNY   66  51  58 NW6       29.95S
CADILLAC       PTSUNNY   69  51  51 W12       29.96R
CHARLEVOIX     PTSUNNY   63  53  71 W15       29.99R
FRANKFORT      PTSUNNY   66  51  59 W6        29.97R
GAYLORD        CLOUDY    63  50  62 NW7       29.95R
GRAYLING       CLOUDY    65  49  54 NW12G18   29.96R
HARBOR SPRINGS CLOUDY    60  53  78 SW8       29.94S
HOUGHTON LAKE  PTSUNNY   68  48  48 W10       29.95R
MANISTEE       CLOUDY    64  48  55 NW9       29.98R
OSCODA         CLOUDY    67  49  52 SE6       29.92S
PELLSTON       MOSUNNY   64  50  60 W8        29.94R
ROGERS CITY    PTSUNNY   66  50  55 NW7       29.93S
TRAVERSE CITY  PTSUNNY   68  51  54 N12       29.95R
$$
MIZ007>008-015-092200-
EASTERN UPPER MICHIGAN

CITY           SKY/WX    TMP DP  RH WIND       PRES   REMARKS
KINROSS        PTSUNNY   64  48  55 NW16      29.91R
MACKINAC ISLAN MOSUNNY   62  53  73 SW12G20   29.92S
NEWBERRY       MOSUNNY   64  47  54 NW10G23   29.94R
S. S. MARIE    PTSUNNY   61  47  59 NW12      29.92R
$$
MIZ004>006-011>014-085-092200-
CENTRAL UPPER MICHIGAN

CITY           SKY/WX    TMP DP  RH WIND       PRES   REMARKS
MANISTIQUE     MOSUNNY   67  47  48 NW14G23   29.95R
ESCANABA       CLOUDY    64  50  59 NW3       29.96R
MENOMINEE      CLOUDY    64  52  63 NW5       29.96R
$$
MIZ001>003-009>011-084-092200-
WESTERN UPPER MICHIGAN

CITY           SKY/WX    TMP DP  RH WIND       PRES   REMARKS
IRON MOUNTAIN  CLOUDY    66  49  54 NW10      29.96R
HOUGHTON       SUNNY     64  48  56 W15       29.97R
COPPER HARBOR    N/A     64  49  57 N14G23    29.95R
$$

ABBREVIATIONS USED IN REMARKS
   TC - TEMPERATURE IN CELSIUS
  WCI - WIND CHILL INDEX
   HX - HEAT INDEX
  VSB - VISIBILITY




USA.gov is the U.S. government's official web portal to all federal, state and local government web resources and services.